Weather History for Garden City, KS

Change the Weather History Date:

Saturday, June 1, 2013

  Actual Average Record
Temperature  
Mean Temperature 62 °F 68 °F  
Max Temperature 74 °F 81 °F 103 °F (2002)
Min Temperature 49 °F 56 °F 46 °F (1954)
Degree Days  
Heating Degree Days 3 2  
Month to date heating degree days 3 2  
Since 1 June heating degree days 3 2  
Since 1 July heating degree days 5202 5193  
Cooling Degree Days 0 5  
Month to date cooling degree days 0 5  
Year to date cooling degree days 147 94  
Since 1 June cooling degree days 0 5  
Growing Degree Days 12 (Base 50)    
Moisture  
Dew Point 41 °F    
Average Humidity 50    
Maximum Humidity 68    
Minimum Humidity 31    
Precipitation  
Precipitation 0.00 in 0.11 in 0.60 in (1962)
Month to date precipitation 0.00 0.11  
Year to date precipitation 1.57 7.05  
Sea Level Pressure  
Sea Level Pressure 29.99 in    
Wind  
Wind Speed 16 mph (North)    
Max Wind Speed 30 mph    
Max Gust Speed 37 mph    
Visibility 10 miles    
Events      
T = Trace of Precipitation, MM = Missing Value Source: NWS Daily Summary

Daily Weather History Graph

Daily Weather History Graph

Search for Another Location

Airport:

Trip Planner

Search our weather history database for the weather conditions in past years. The results will help you decide how hot, cold, wet, or windy it might be!

Date:

Astronomy

Jun. 01, 2013 Rise Set
Actual Time 6:22 AM CDT 8:59 PM CDT
Civil Twilight 5:51 AM CDT 9:30 PM CDT
Nautical Twilight 5:13 AM CDT 10:09 PM CDT
Astronomical Twilight 4:30 AM CDT 10:52 PM CDT
Moon 2:12 AM CDT (6/1) 2:36 PM CDT (6/1)
Length of Visible Light 15h 39m
Length of Day
14h 37m
Last Quarter, 40% of the Moon is Illuminated
Jun 1
Last Quarter
Jun 8
New
Jun 16
First Quarter
Jun 23
Full
Jun 29
Last Quarter

Hourly Weather History & Observations

Time (CDT) Temp. Dew Point Humidity Pressure Visibility Wind Dir Wind Speed Gust Speed Precip Events Conditions
12:54 AM 61.0 °F 41.0 °F 48% 29.80 in 10.0 mi NNE 25.3 mph 33.4 mph N/A   Clear
1:54 AM 57.0 °F 39.9 °F 53% 29.85 in 10.0 mi NNE 20.7 mph - N/A   Clear
2:54 AM 55.0 °F 39.9 °F 57% 29.88 in 10.0 mi NNE 15.0 mph - N/A   Clear
3:54 AM 52.0 °F 41.0 °F 66% 29.88 in 10.0 mi North 13.8 mph - N/A   Clear
4:54 AM 51.1 °F 41.0 °F 68% 29.91 in 10.0 mi North 12.7 mph - N/A   Clear
5:54 AM 52.0 °F 41.0 °F 66% 29.92 in 10.0 mi NNW 12.7 mph - N/A   Clear
6:54 AM 52.0 °F 41.0 °F 66% 29.95 in 10.0 mi NW 16.1 mph - N/A   Clear
7:54 AM 55.9 °F 41.0 °F 57% 29.96 in 10.0 mi NNW 17.3 mph - N/A   Clear
8:54 AM 59.0 °F 39.9 °F 49% 29.97 in 10.0 mi NNW 26.5 mph 36.8 mph N/A   Clear
9:54 AM 63.0 °F 39.9 °F 43% 29.98 in 10.0 mi NNW 27.6 mph 36.8 mph N/A   Clear
10:54 AM 66.0 °F 39.9 °F 38% 29.99 in 10.0 mi NW 26.5 mph 35.7 mph N/A   Clear
11:54 AM 64.9 °F 39.9 °F 40% 30.01 in 10.0 mi NW 18.4 mph 32.2 mph N/A   Clear
12:54 PM 68.0 °F 41.0 °F 37% 30.01 in 10.0 mi NNW 15.0 mph 31.1 mph N/A   Mostly Cloudy
1:54 PM 68.0 °F 41.0 °F 37% 30.02 in 10.0 mi NNW 17.3 mph 23.0 mph N/A   Overcast
2:54 PM 71.1 °F 41.0 °F 34% 30.01 in 10.0 mi North 16.1 mph 25.3 mph N/A   Overcast
3:54 PM 72.0 °F 39.9 °F 31% 30.01 in 10.0 mi North 17.3 mph 25.3 mph N/A   Overcast
4:54 PM 71.1 °F 42.1 °F 35% 30.03 in 10.0 mi North 21.9 mph 28.8 mph N/A   Overcast
5:54 PM 73.0 °F 41.0 °F 31% 30.03 in 10.0 mi NNW 15.0 mph 24.2 mph N/A   Partly Cloudy
6:54 PM 70.0 °F 41.0 °F 35% 30.04 in 10.0 mi North 25.3 mph 29.9 mph N/A   Clear
7:54 PM 68.0 °F 41.0 °F 37% 30.05 in 10.0 mi North 18.4 mph - N/A   Scattered Clouds
8:54 PM 64.9 °F 39.9 °F 40% 30.06 in 10.0 mi NNE 13.8 mph - N/A   Clear
9:54 PM 59.0 °F 41.0 °F 51% 30.08 in 10.0 mi NE 6.9 mph - N/A   Clear
10:54 PM 57.9 °F 41.0 °F 53% 30.09 in 10.0 mi NE 6.9 mph - N/A   Clear
11:54 PM 53.1 °F 39.9 °F 61% 30.12 in 10.0 mi Calm Calm - N/A   Clear